CW1913 Weather Reports


Display with metric or nautical units.
time (UTC)temp
F
wind
direction
speed
MPH
gust
MPH
rain 1hr
in
rain 24hr
in
rain mn
in
humidity
%
barometer
mb
20260504173118 81 146 3.0 7.0 0.00 0.00 0.00 46 1018.9
20260504172617 81 13 1.0 10.0 0.00 0.00 0.00 44 1018.9
20260504172120 81 192 5.0 10.0 0.00 0.00 0.00 46 1019.0
20260504171642 81 9 3.0 8.0 0.00 0.00 0.00 45 1019.1
20260504171115 80 316 2.0 11.0 0.00 0.00 0.00 48 1019.0
20260504170642 80 74 3.0 11.0 0.00 0.00 0.00 48 1019.0
20260504170121 80 69 2.0 8.0 0.00 0.00 0.00 48 1019.2
20260504160118 79 72 1.0 8.0 0.00 0.00 0.00 47 1019.8
20260504151136 77 345 3.0 7.0 0.00 0.00 0.00 55 1020.1
20260504150643 77 5 2.0 8.0 0.00 0.00 0.00 56 1020.1
20260504150119 77 37 4.0 8.0 0.00 0.00 0.00 56 1020.1
20260504141132 75 20 2.0 8.0 0.00 0.00 0.00 65 1020.1
20260504140632 75 46 2.0 8.0 0.00 0.00 0.00 65 1020.1
20260504140115 74 105 2.0 7.0 0.00 0.00 0.00 67 1020.1
20260504130703 71 70 3.0 9.0 0.00 0.00 0.00 79 1019.7
20260504130118 71 42 2.0 7.0 0.00 0.00 0.00 81 1019.7
20260504120142 64 28 1.0 6.0 0.00 0.00 0.00 90 1019.5
20260504110642 61 21 0.0 1.0 0.00 0.00 0.00 90 1019.1
20260504110138 61 21 0.0 0.0 0.00 0.00 0.00 90 1019.0
20260504100126 61 24 0.0 0.0 0.00 0.00 0.00 90 1018.7
20260504090125 62 24 0.0 3.0 0.00 0.00 0.00 90 1018.8
20260504081620 63 24 0.0 0.0 0.00 0.00 0.00 90 1018.7
20260504081141 63 24 0.0 0.0 0.00 0.00 0.00 90 1018.8
20260504080642 63 24 0.0 0.0 0.00 0.00 0.00 90 1018.9
20260504080142 63 24 0.0 0.0 0.00 0.00 0.00 90 1018.9
20260504070119 64 24 0.0 1.0 0.00 0.00 0.00 87 1019.0
20260504060122 65 38 0.0 2.0 0.00 0.00 0.00 85 1019.3
20260504050643 66 46 0.0 2.0 0.00 0.00 0.00 83 1019.8
20260504050121 66 46 0.0 0.0 0.00 0.00 0.00 83 1019.9
20260504045643 66 46 0.0 0.0 0.00 0.00 0.00 83 1020.0
20260504045202 66 46 0.0 0.0 0.00 0.00 0.00 83 1020.0
20260504044615 66 46 0.0 0.0 0.00 0.00 0.00 82 1020.1
20260504044125 66 46 0.0 0.0 0.00 0.00 0.00 82 1020.1
20260504043647 66 46 0.0 0.0 0.00 0.00 0.00 81 1020.2
20260504043125 66 46 0.0 0.0 0.00 0.00 0.00 82 1020.2
20260504042643 67 46 0.0 0.0 0.00 0.00 0.00 81 1020.1
20260504042142 67 46 0.0 3.0 0.00 0.00 0.00 81 1020.2
20260504041624 67 46 0.0 3.0 0.00 0.00 0.00 80 1020.1
20260504041123 67 46 0.0 4.0 0.00 0.00 0.00 80 1020.0
20260504040625 67 46 1.0 4.0 0.00 0.00 0.00 80 1020.1
20260504040125 67 49 0.0 1.0 0.00 0.00 0.00 80 1020.1
20260504035642 67 49 0.0 1.0 0.00 0.00 0.00 80 1020.2
20260504035119 67 49 0.0 1.0 0.00 0.00 0.00 80 1020.2
20260504034635 67 49 0.0 1.0 0.00 0.00 0.00 79 1020.1
20260504034122 67 49 0.0 0.0 0.00 0.00 0.00 79 1020.1
20260504033646 67 49 0.0 1.0 0.00 0.00 0.00 79 1020.1
20260504033208 67 50 0.0 2.0 0.00 0.00 0.00 79 1020.1
20260504032646 67 50 0.0 3.0 0.00 0.00 0.00 78 1019.9
20260504032147 67 55 0.0 3.0 0.00 0.00 0.00 78 1020.0
20260504031644 67 56 1.0 3.0 0.00 0.00 0.00 78 1019.9
20260504031119 67 64 0.0 3.0 0.00 0.00 0.00 78 1019.9
20260504030640 67 28 0.0 4.0 0.00 0.00 0.00 78 1019.9
20260504030118 67 31 1.0 4.0 0.00 0.00 0.00 78 1019.9
20260504025639 67 30 1.0 4.0 0.00 0.00 0.00 77 1020.0
20260504025114 67 42 1.0 4.0 0.00 0.00 0.00 78 1019.9
20260504024624 67 61 0.0 3.0 0.00 0.00 0.00 77 1019.9
20260504024125 67 69 0.0 4.0 0.00 0.00 0.00 78 1019.9
20260504023626 67 62 1.0 4.0 0.00 0.00 0.00 78 1019.9
20260504023125 67 43 1.0 3.0 0.00 0.00 0.00 78 1019.9
20260504022646 68 95 0.0 3.0 0.00 0.00 0.00 78 1019.8
20260504022145 68 98 1.0 4.0 0.00 0.00 0.00 78 1019.9
20260504021617 68 49 1.0 4.0 0.00 0.00 0.00 78 1019.7
20260504021133 68 48 0.0 2.0 0.00 0.00 0.00 77 1019.7
20260504020617 68 48 0.0 3.0 0.00 0.00 0.00 77 1019.8
20260504020117 68 50 0.0 3.0 0.00 0.00 0.00 76 1019.7
20260504015619 68 93 1.0 4.0 0.00 0.00 0.00 76 1019.6
20260504015146 68 30 0.0 5.0 0.00 0.00 0.00 76 1019.5
20260504014646 68 57 0.0 7.0 0.00 0.00 0.00 76 1019.4
20260504014119 68 48 1.0 5.0 0.00 0.00 0.00 75 1019.4
20260504013640 69 30 1.0 5.0 0.00 0.00 0.00 75 1019.4
20260504013125 69 40 1.0 5.0 0.00 0.00 0.00 75 1019.2
20260504012625 69 62 1.0 3.0 0.00 0.00 0.00 75 1019.1
20260504012127 69 90 1.0 5.0 0.00 0.00 0.00 74 1019.2
20260504011619 69 92 1.0 5.0 0.00 0.00 0.00 74 1019.0
20260504011123 70 60 1.0 5.0 0.00 0.00 0.00 73 1019.0
20260504010631 70 22 1.0 4.0 0.00 0.00 0.00 73 1019.0
20260504010121 70 34 0.0 7.0 0.00 0.00 0.00 72 1018.9
20260504005647 70 27 2.0 7.0 0.00 0.00 0.00 71 1018.9
20260504005145 70 75 1.0 4.0 0.00 0.00 0.00 71 1018.8
20260504004625 71 42 1.0 6.0 0.00 0.00 0.00 70 1018.7
20260504004144 71 5 1.0 5.0 0.00 0.00 0.00 70 1018.6
20260504003614 71 69 1.0 6.0 0.00 0.00 0.00 69 1018.6
20260504003142 71 34 2.0 5.0 0.00 0.00 0.00 69 1018.6
20260504002617 71 43 0.0 4.0 0.00 0.00 0.00 68 1018.6
20260504002117 72 24 1.0 3.0 0.00 0.00 0.00 67 1018.7
20260504001632 72 24 0.0 3.0 0.00 0.00 0.00 67 1018.7
20260504001118 72 24 0.0 3.0 0.00 0.00 0.00 67 1018.6
20260504000625 72 24 0.0 4.0 0.00 0.00 0.00 66 1018.6
20260504000145 72 65 1.0 4.0 0.00 0.00 0.00 66 1018.6
20260503235622 73 26 2.0 4.0 0.00 0.00 0.00 65 1018.4
20260503235141 73 44 2.0 4.0 0.00 0.00 0.00 65 1018.5
20260503234619 73 60 1.0 4.0 0.00 0.00 0.00 65 1018.4
20260503234119 73 84 1.0 4.0 0.00 0.00 0.00 65 1018.4
20260503233643 73 20 0.0 4.0 0.00 0.00 0.00 65 1018.2
20260503233207 73 55 0.0 5.0 0.00 0.00 0.00 64 1018.1
20260503232637 74 96 1.0 5.0 0.00 0.00 0.00 64 1018.2
20260503232129 74 51 0.0 2.0 0.00 0.00 0.00 64 1018.2
20260503231646 74 51 0.0 2.0 0.00 0.00 0.00 63 1018.2
20260503231138 74 51 0.0 4.0 0.00 0.00 0.00 63 1018.1
20260503230642 74 50 1.0 5.0 0.00 0.00 0.00 63 1018.1
20260503230207 74 69 0.0 5.0 0.00 0.00 0.00 63 1018.1
20260503225641 74 49 2.0 7.0 0.00 0.00 0.00 63 1018.1
20260503225127 74 57 3.0 7.0 0.00 0.00 0.00 63 1018.1
20260503224623 75 70 2.0 7.0 0.00 0.00 0.00 63 1018.1
20260503224122 75 23 1.0 5.0 0.00 0.00 0.00 63 1018.1
20260503223624 75 50 2.0 5.0 0.00 0.00 0.00 63 1018.1
20260503223123 75 46 1.0 9.0 0.00 0.00 0.00 63 1018.1
20260503222624 75 5 3.0 9.0 0.00 0.00 0.00 63 1018.2
20260503222123 76 29 3.0 6.0 0.00 0.00 0.00 62 1018.2
20260503221640 76 25 2.0 6.0 0.00 0.00 0.00 62 1018.2
20260503221138 76 26 3.0 6.0 0.00 0.00 0.00 61 1018.1
20260503220619 76 64 1.0 7.0 0.00 0.00 0.00 62 1018.1
20260503220120 76 345 2.0 7.0 0.00 0.00 0.00 61 1018.1
20260503215619 76 19 1.0 5.0 0.00 0.00 0.00 61 1018.1
20260503215119 76 42 2.0 6.0 0.00 0.00 0.00 61 1018.1
20260503214623 76 19 1.0 6.0 0.00 0.00 0.00 61 1018.1
20260503214120 77 26 2.0 6.0 0.00 0.00 0.00 61 1018.0
20260503213639 77 27 3.0 9.0 0.00 0.00 0.00 61 1017.9
20260503213146 77 18 2.0 9.0 0.00 0.00 0.00 62 1017.9
20260503212647 77 30 2.0 5.0 0.00 0.00 0.00 61 1017.9
20260503212122 77 125 2.0 6.0 0.00 0.00 0.00 60 1017.9
20260503211640 77 21 2.0 6.0 0.00 0.00 0.00 60 1017.9
20260503211142 77 66 3.0 6.0 0.00 0.00 0.00 60 1017.8
20260503210642 77 109 2.0 7.0 0.00 0.00 0.00 62 1017.8
20260503210140 77 13 4.0 7.0 0.00 0.00 0.00 62 1017.9
20260503205615 76 27 3.0 5.0 0.00 0.00 0.00 61 1018.0
20260503205132 76 38 1.0 6.0 0.00 0.00 0.00 62 1018.1
20260503204620 77 38 3.0 10.0 0.00 0.00 0.00 61 1018.2
20260503204126 77 24 2.0 7.0 0.00 0.00 0.00 60 1018.2
20260503203657 78 128 3.0 6.0 0.00 0.00 0.00 60 1018.2
20260503203117 78 109 2.0 6.0 0.00 0.00 0.00 60 1018.2
20260503202639 77 120 3.0 6.0 0.00 0.00 0.00 61 1018.2
20260503202205 77 61 2.0 11.0 0.00 0.00 0.00 61 1018.3
20260503201614 77 17 2.0 11.0 0.00 0.10 0.00 62 1018.5
20260503201121 77 36 3.0 7.0 0.00 0.10 0.00 62 1018.4
20260503200622 77 10 3.0 8.0 0.00 0.10 0.00 62 1018.4
20260503200141 77 112 3.0 10.0 0.00 0.10 0.00 62 1018.4
20260503195625 77 73 3.0 10.0 0.00 0.10 0.00 62 1018.5
20260503195126 77 103 1.0 7.0 0.00 0.10 0.00 62 1018.5
20260503194624 78 115 2.0 6.0 0.00 0.10 0.00 61 1018.6
20260503194115 78 88 2.0 6.0 0.00 0.10 0.00 61 1018.7
20260503193621 77 113 2.0 8.0 0.00 0.10 0.00 60 1018.7
20260503193124 77 75 2.0 9.0 0.00 0.10 0.00 60 1018.9
20260503192623 77 10 4.0 9.0 0.00 0.10 0.00 61 1019.0
20260503192122 77 37 1.0 5.0 0.00 0.10 0.00 61 1019.0
20260503191636 76 61 0.0 5.0 0.00 0.32 0.00 61 1019.1
20260503191202 77 25 1.0 6.0 0.00 0.32 0.00 61 1019.3
20260503190617 77 13 2.0 6.0 0.00 0.32 0.00 61 1019.4
20260503190119 78 29 1.0 6.0 0.00 0.32 0.00 61 1019.4
20260503185636 78 50 3.0 6.0 0.00 0.32 0.00 61 1019.4
20260503185118 78 5 2.0 11.0 0.00 0.32 0.00 62 1019.6
20260503184644 78 37 4.0 9.0 0.00 0.32 0.00 61 1019.6
20260503184124 77 21 2.0 7.0 0.00 0.32 0.00 59 1019.7
20260503183642 77 17 3.0 9.0 0.00 0.32 0.00 61 1019.7
20260503183122 77 55 3.0 8.0 0.00 0.32 0.00 63 1019.8
20260503182623 77 15 3.0 9.0 0.00 0.32 0.00 63 1019.9
20260503182119 77 355 4.0 8.0 0.00 0.32 0.00 65 1019.8
20260503181643 76 121 3.0 5.0 0.00 0.37 0.00 65 1019.9
20260503181123 76 22 2.0 10.0 0.00 0.37 0.00 66 1019.9
20260503180625 76 30 2.0 10.0 0.00 0.37 0.00 66 1020.0
20260503180203 76 34 3.0 7.0 0.00 0.37 0.00 64 1020.1
20260503175642 76 48 4.0 7.0 0.00 0.37 0.00 65 1020.1
20260503175118 75 21 2.0 10.0 0.00 0.37 0.00 66 1020.1
20260503174625 75 19 3.0 10.0 0.00 0.37 0.00 65 1020.3
20260503174145 76 46 1.0 8.0 0.00 0.37 0.00 65 1020.2
20260503173644 75 60 3.0 8.0 0.00 0.37 0.00 66 1020.3